Location: Champs
(48.8539°N, 2.6040°E)
Time: 09:47:05
(UTC+00:00)

USA 308 - Pass Details

Date: 29 May 2022
Orbit: 549 x 558 km, 54.0° (Epoch: 14 June)

Event Time Altitude Azimuth Distance (km) Brightness Sun altitude
Exits shadow 00:28:24 38° 235° (SW) 852 3.4 -19.0°
Maximum altitude 00:29:55 84° 152° (SSE) 566 2.7 -18.9°
Drops below altitude 10° 00:34:09 10° 63° (ENE) 1,862 6.0 -18.8°
Sets 00:36:23 0° 63° (ENE) 2,749 7.0 -18.7°
